Breckenridge, TX

2:58 PM CST on January 21, 2018 (GMT -0600)
Stephens County

Weather History for KBKD - August, 2013

Change the Weather History Date:

Saturday, August 3, 2013

  Actual Average (KMWL) Record (KMWL)
Temperature  
Mean Temperature 90 °F -  
Max Temperature 101 °F 96 °F 111 °F (2011)
Min Temperature 79 °F 72 °F 64 °F (2014)
Cooling Degree Days 25    
Growing Degree Days 40 (Base 50)    
Moisture  
Dew Point 61 °F    
Average Humidity 39    
Maximum Humidity 57    
Minimum Humidity 23    
Precipitation  
Precipitation 0.00 in - - ()
Sea Level Pressure  
Sea Level Pressure 29.96 in    
Wind  
Wind Speed 10 mph (South)    
Max Wind Speed 15 mph    
Max Gust Speed 21 mph    
Visibility 10 miles    
Events      
Averages and records for this station are not official NWS values.
T = Trace of Precipitation, MM = Missing Value Source: NWS Daily Summary

Daily Weather History Graph

Daily Weather History Graph

Search for Another Location

Airport or City:

Trip Planner

Search our weather history database for the weather conditions in past years. The results will help you decide how hot, cold, wet, or windy it might be!

Date:

Astronomy

Aug. 03, 2013 Rise Set
Actual Time 6:51 AM CDT 8:31 PM CDT
Civil Twilight 6:24 AM CDT 8:58 PM CDT
Nautical Twilight 5:52 AM CDT 9:30 PM CDT
Astronomical Twilight 5:18 AM CDT 10:04 PM CDT
Moon 4:03 AM CDT (8/3) 6:13 PM CDT (8/3)
Length of Visible Light 14h 34m
Length of Day
13h 40m
Waning Crescent, 9% of the Moon is Illuminated
Aug 3
Waning Crescent
Aug 6
New
Aug 14
First Quarter
Aug 20
Full
Aug 28
Last Quarter

Hourly Weather History & Observations

Time (CDT) Temp. Heat Index Dew Point Humidity Pressure Visibility Wind Dir Wind Speed Gust Speed Precip Events Conditions
12:15 AM 87.8 °F 87.4 °F 60.1 °F 39% 29.93 in 10.0 mi SSE 11.5 mph 17.3 mph N/A   Clear
12:35 AM 87.8 °F 87.4 °F 60.1 °F 39% 29.93 in 10.0 mi SSE 11.5 mph 18.4 mph N/A   Clear
12:55 AM 87.3 °F 87.0 °F 60.1 °F 40% 29.93 in 10.0 mi SSE 11.5 mph 18.4 mph N/A   Clear
1:15 AM 86.4 °F 86.3 °F 60.4 °F 42% 29.92 in 10.0 mi South 10.4 mph 16.1 mph N/A   Clear
1:35 AM 86.0 °F 85.9 °F 60.4 °F 42% 29.93 in 10.0 mi SSE 9.2 mph - N/A   Clear
1:55 AM 85.3 °F 85.4 °F 60.8 °F 44% 29.93 in 10.0 mi South 9.2 mph 16.1 mph N/A   Clear
2:15 AM 84.7 °F 84.8 °F 60.8 °F 44% 29.93 in 10.0 mi SSE 9.2 mph - N/A   Clear
2:35 AM 84.4 °F 84.6 °F 60.8 °F 45% 29.93 in 10.0 mi SSE 8.1 mph - N/A   Clear
2:55 AM 83.8 °F 84.1 °F 60.8 °F 46% 29.93 in 10.0 mi South 9.2 mph - N/A   Clear
3:15 AM 83.5 °F 83.7 °F 60.8 °F 46% 29.93 in 10.0 mi South 9.2 mph - N/A   Clear
3:35 AM 83.8 °F 84.1 °F 60.8 °F 46% 29.93 in 10.0 mi South 12.7 mph 17.3 mph N/A   Clear
3:55 AM 83.7 °F 83.9 °F 60.8 °F 46% 29.93 in 10.0 mi South 10.4 mph - N/A   Clear
4:15 AM 82.9 °F 83.3 °F 61.0 °F 47% 29.93 in 10.0 mi South 13.8 mph - N/A   Clear
4:35 AM 82.8 °F 83.3 °F 61.3 °F 48% 29.94 in 10.0 mi South 11.5 mph 18.4 mph N/A   Clear
4:55 AM 82.6 °F 83.2 °F 61.7 °F 49% 29.93 in 10.0 mi South 15.0 mph 19.6 mph N/A   Clear
5:15 AM 82.0 °F 82.8 °F 61.9 °F 50% 29.94 in 10.0 mi South 11.5 mph 20.7 mph N/A   Clear
5:35 AM 81.5 °F 82.5 °F 62.2 °F 52% 29.94 in 10.0 mi South 11.5 mph 17.3 mph N/A   Clear
5:55 AM 81.0 °F 82.1 °F 62.6 °F 53% 29.94 in 10.0 mi South 10.4 mph - N/A   Clear
6:15 AM 80.6 °F 81.8 °F 62.8 °F 54% 29.94 in 10.0 mi South 9.2 mph 16.1 mph N/A   Clear
6:35 AM 80.2 °F 81.5 °F 62.8 °F 55% 29.95 in 10.0 mi South 10.4 mph - N/A   Clear
6:55 AM 79.9 °F - 63.0 °F 56% 29.95 in 10.0 mi South 9.2 mph - N/A   Clear
7:15 AM 79.9 °F - 63.1 °F 56% 29.96 in 10.0 mi South 9.2 mph - N/A   Clear
7:35 AM 80.1 °F 81.6 °F 63.5 °F 57% 29.97 in 10.0 mi SSW 9.2 mph - N/A   Clear
7:55 AM 80.8 °F 82.2 °F 63.7 °F 56% 29.97 in 10.0 mi SSW 10.4 mph - N/A   Clear
8:15 AM 81.3 °F 82.7 °F 63.9 °F 55% 29.98 in 10.0 mi SSW 9.2 mph - N/A   Clear
8:35 AM 82.0 °F 83.4 °F 63.9 °F 54% 29.98 in 10.0 mi SSW 10.4 mph 16.1 mph N/A   Clear
8:55 AM 82.9 °F 84.4 °F 64.4 °F 53% 29.99 in 10.0 mi SSW 13.8 mph - N/A   Clear
9:15 AM 84.6 °F 86.1 °F 64.8 °F 51% 29.99 in 10.0 mi SW 9.2 mph - N/A   Clear
9:35 AM 85.8 °F 87.6 °F 64.9 °F 50% 29.99 in 10.0 mi SSW 9.2 mph - N/A   Clear
9:55 AM 87.1 °F 88.6 °F 64.4 °F 47% 30.00 in 10.0 mi SW 15.0 mph - N/A   Clear
10:15 AM 88.3 °F 89.9 °F 64.4 °F 45% 30.00 in 10.0 mi SW 11.5 mph - N/A   Clear
10:35 AM 90.0 °F 91.7 °F 64.8 °F 43% 30.00 in 10.0 mi SW 10.4 mph - N/A   Clear
10:55 AM 90.9 °F 92.3 °F 64.2 °F 41% 30.01 in 10.0 mi SSW 10.4 mph - N/A   Clear
11:15 AM 91.6 °F 92.7 °F 63.5 °F 39% 30.01 in 10.0 mi SW 10.4 mph 17.3 mph N/A   Clear
11:35 AM 92.3 °F 93.8 °F 63.9 °F 39% 30.01 in 10.0 mi SSW 9.2 mph - N/A   Clear
11:55 AM 93.4 °F 95.2 °F 64.4 °F 38% 30.00 in 10.0 mi South 4.6 mph - N/A   Clear
12:15 PM 93.7 °F 94.9 °F 63.3 °F 36% 30.01 in 10.0 mi SW 6.9 mph - N/A   Clear
12:35 PM 95.0 °F 96.5 °F 63.7 °F 35% 30.00 in 10.0 mi South 9.2 mph - N/A   Clear
12:55 PM 95.0 °F 96.0 °F 63.0 °F 34% 29.99 in 10.0 mi South 9.2 mph - N/A   Clear
1:15 PM 95.9 °F 97.0 °F 62.8 °F 33% 29.99 in 10.0 mi South 4.6 mph 18.4 mph N/A   Clear
1:35 PM 96.8 °F 98.0 °F 62.6 °F 32% 29.98 in 10.0 mi South 8.1 mph - N/A   Clear
1:55 PM 96.8 °F 97.5 °F 61.3 °F 31% 29.98 in 10.0 mi SSW 10.4 mph 16.1 mph N/A   Clear
2:15 PM 97.9 °F 98.3 °F 60.3 °F 29% 29.97 in 10.0 mi SSW 8.1 mph - N/A   Clear
2:35 PM 98.4 °F 99.7 °F 62.2 °F 30% 29.97 in 10.0 mi SSW 11.5 mph 16.1 mph N/A   Clear
2:55 PM 98.2 °F 98.4 °F 59.9 °F 28% 29.96 in 10.0 mi South 6.9 mph - N/A   Clear
3:15 PM 98.6 °F 98.9 °F 60.3 °F 28% 29.96 in 10.0 mi SSW 5.8 mph - N/A   Clear
3:35 PM 99.1 °F 99.3 °F 59.5 °F 27% 29.95 in 10.0 mi South 12.7 mph 17.3 mph N/A   Clear
3:55 PM 99.7 °F 99.6 °F 58.8 °F 26% 29.95 in 10.0 mi SSE 10.4 mph 17.3 mph N/A   Clear
4:15 PM 100.2 °F 100.0 °F 58.6 °F 25% 29.94 in 10.0 mi South 6.9 mph - N/A   Clear
4:35 PM 100.4 °F 100.7 °F 59.2 °F 26% 29.94 in 10.0 mi Calm Calm - N/A   Clear
4:55 PM 100.4 °F 100.7 °F 59.4 °F 26% 29.93 in 10.0 mi South 11.5 mph - N/A   Clear
5:15 PM 101.1 °F 100.3 °F 57.0 °F 23% 29.93 in 10.0 mi SE 13.8 mph 17.3 mph N/A   Clear
5:35 PM 100.4 °F 100.2 °F 58.8 °F 25% 29.93 in 10.0 mi SE 11.5 mph - N/A   Clear
5:55 PM 100.2 °F 99.5 °F 57.7 °F 24% 29.93 in 10.0 mi SE 15.0 mph - N/A   Clear
6:15 PM 99.7 °F 99.6 °F 59.5 °F 26% 29.93 in 10.0 mi SE 11.5 mph 17.3 mph N/A   Clear
6:35 PM 99.1 °F 99.3 °F 59.9 °F 27% 29.93 in 10.0 mi SSE 10.4 mph 19.6 mph N/A   Clear
6:55 PM 98.8 °F 98.3 °F 58.6 °F 26% 29.93 in 10.0 mi SSE 13.8 mph 18.4 mph N/A   Clear
7:15 PM 98.4 °F 97.3 °F 56.7 °F 25% 29.93 in 10.0 mi SSE 11.5 mph - N/A   Clear
7:35 PM 97.7 °F 96.3 °F 56.1 °F 25% 29.93 in 10.0 mi SE 11.5 mph - N/A   Clear
7:55 PM 96.8 °F 95.5 °F 56.3 °F 26% 29.93 in 10.0 mi SSE 10.4 mph 16.1 mph N/A   Clear
8:15 PM 95.4 °F 94.6 °F 57.9 °F 29% 29.94 in 10.0 mi SE 12.7 mph 17.3 mph N/A   Clear
8:35 PM 93.9 °F 92.9 °F 58.5 °F 30% 29.95 in 10.0 mi SE 10.4 mph - N/A   Clear
8:55 PM 92.7 °F 91.8 °F 58.6 °F 32% 29.95 in 10.0 mi SE 9.2 mph - N/A   Clear
9:15 PM 91.6 °F 90.7 °F 59.0 °F 33% 29.96 in 10.0 mi SE 8.1 mph - N/A   Clear
9:35 PM 90.1 °F 89.3 °F 59.2 °F 35% 29.97 in 10.0 mi SE 6.9 mph - N/A   Clear
9:55 PM 89.6 °F 88.9 °F 59.2 °F 36% 29.98 in 10.0 mi SE 6.9 mph - N/A   Clear
10:15 PM 88.9 °F 88.3 °F 59.4 °F 37% 29.99 in 10.0 mi SE 6.9 mph - N/A   Clear
10:35 PM 88.9 °F 88.3 °F 59.7 °F 37% 30.01 in 10.0 mi SE 9.2 mph - N/A   Clear
10:55 PM 88.3 °F 87.8 °F 60.1 °F 38% 30.01 in 10.0 mi SE 9.2 mph - N/A   Clear
11:15 PM 87.8 °F 87.6 °F 60.4 °F 40% 30.01 in 10.0 mi SE 9.2 mph - N/A   Clear
11:35 PM 87.1 °F 87.0 °F 60.8 °F 41% 30.01 in 10.0 mi SSE 9.2 mph - N/A   Clear
11:55 PM 86.2 °F 86.1 °F 60.8 °F 42% 30.01 in 10.0 mi SSE 9.2 mph - N/A   Clear